Tracking 25701 objects as of 3-Jul-2022
HD Live streaming from Space Station
objects crossing your sky now

STARLINK-3843

Track STARLINK-3843 now!
10-day predictions
STARLINK-3843 is classified as:


NORAD ID: 52341
Int'l Code: 2022-045L
Perigee: 545.4 km
Apogee: 548.1 km
Inclination: 53.2 °
Period: 95.4 minutes
Semi major axis: 6917 km
RCS: Unknown
Launch date: April 29, 2022
Source: United States (US)
Launch site: AIR FORCE EASTERN TEST RANGE (AFETR)
aabbcc
Your satellite tracking list
Your tracking list is empty




NASA's NSSDC Master Catalog

Two Line Element Set (TLE):
1 52341U 22045L   22184.00001157 -.00021483  00000-0 -13344-2 0  9996
2 52341  53.2164 130.1583 0001976  48.6082 152.4875 15.08874971 12487
Source of the keplerian elements: AFSPC